www.pogodaiklimat.ru

Погода и климат >> Архив погоды >> Иран >> Шираз


ПОГОДА в Ширазе

  • Прогноз погоды в Ширазе
  • Монитор погоды в Ширазе

АРХИВ ПОГОДЫ в Ширазе

Время (UTC), дата Ветер
(напр.,м/с)
 
Видим.   Явления Облачность Т
(С)
Тd
(С)
f
(%)
Тe
(С)
Тes
(С)
Комфортность P
(гПа)
Po
(гПа)
Тmin
(С)
Tmax
(С)
R
(мм)
R24
(мм)
S
(см)
15 12.01 штиль 0 10 км 5/0
[Ci sp]
+8.4 -6.9 33 +8 +8 1021.9 853.8 +16.0
18 12.01 штиль 0 10 км ясно +4.0 -4.8 53 +4 +4 1021.6 854.8
21 12.01 штиль 0 10 км ясно +2.2 -5.4 57 +2 +2 854.3
00 13.01 ЮЗ 2 10 км ясно -0.8 -6.3 66 -4 -4 1020.9 854.9
03 13.01 штиль 0 12 км 1/0
[Ci sp]
+1.2 -6.2 58 +1 +1 1023.6 856.0 -1.0
06 13.01 штиль 0 12 км 4/0
[Ci sp]
+9.2 -4.7 37 +9 +15 1024.2 857.5
09 13.01 В 2 12 км 8/0
[Cs]
+13.2 -6.9 24 +13 +20 1020.7 855.1
12 13.01 штиль 0 10 км 9/0
[Cs]
+15.6 -7.0 20 +16 +18 1018.8 853.4
15 13.01 штиль 0 12 км 5/0
[Cs]
+9.0 -5.0 37 +9 +9 1021.2 854.2 +17.0
18 13.01 штиль 0 12 км 5/0
[Ci sp]
+6.2 -4.4 47 +6 +6 1020.5 855.0
21 13.01 штиль 0 10 км 9/0
[Cs]
+6.8 -2.1 53 +6 +6 1018.4 854.5
00 14.01 штиль 0 10 км 9/1 1200 м
[Sc diur, vesp Ac trans Cs]
+7.4 -5.4 40 +7 +7 1017.1 854.1
03 14.01 штиль 0 10 км 9/3 1200 м
[Sc diur, vesp Cs]
+4.8 -3.6 54 +4 +4 1020.0 854.2 +4.4
06 14.01 штиль 0 10 км 9/3 1200 м
[Sc diur, vesp Cs]
+11.2 -3.4 36 +11 +15 1020.2 855.3
09 14.01 Ю 7 10 км 9/3 1200 м
[Sc diur, vesp Cs]
+17.2 -5.2 21 +16 +18 1016.2 853.6
12 14.01 ЮВ 6 10 км 9/1 1200 м
[Sc diur, vesp Cs]
+16.6 -3.9 24 +16 +16 1015.3 853.0
15 14.01 Ю 6 10 км 8/1 1200 м
[Sc diur, vesp Cs]
+14.2 -3.2 30 +13 +13 1017.7 853.6 +17.8
18 14.01 Ю 4 10 км 5/1 1200 м
[Sc diur, vesp Cs]
+12.6 -3.2 33 +11 +11 1017.8 855.0
21 14.01 З 2 10 км 5/1 1200 м
[Sc diur, vesp Cs]
+10.0 -1.9 43 +9 +9 1017.2 855.4
00 15.01 З 2 10 км 5/1 1200 м
[Sc diur, vesp Cs]
+6.0 -0.8 62 +4 +4 1018.7 855.5
03 15.01 З 2 10 км 5/1 1200 м
[Sc diur, vesp Cs]
+6.0 -0.8 62 +4 +4 1018.7 855.5
06 15.01 Ю 2 10 км 9/1 1200 м
[Sc diur, vesp Cs]
+13.2 +0.5 42 +13 +17 1019.0 856.6
09 15.01 СЗ 2 8000 м мгла {дождь} 9/4 1200 м
[Sc Ac As]
+14.2 +3.6 49 +14 +16 1017.4 854.9
12 15.01 З 4 8000 м мгла {дождь} 10/6 900 м
[Cb calv As op]
+14.0 +2.3 45 +13 +13 1018.8 855.0 0.2
15 15.01 СЗ 2 8000 м мгла {дождь} 6/4 1200 м
[Sc diur, vesp Ac trans]
+10.6 +7.1 79 +9 +9 1021.4 856.5 +16.0
18 15.01 штиль 0 6000 м слаб. дождь 8/4 1050 м
[Sc diur, vesp As op]
+9.6 +8.1 90 +9 +9 1020.8 857.6 1
21 15.01 штиль 0 5000 м дымка {дождь} 5/3 1050 м
[Sc diur, vesp Ac trans]
+7.8 +7.4 97 +7 +7 1019.7 856.5
00 16.01 штиль 0 4000 м дымка 5/3 1050 м
[Sc diur, vesp Ac trans]
+5.4 +5.0 97 +4 +4 1020.3 856.2 0.1
03 16.01 штиль 0 300 м туман на расстоянии 6/4 300 м
[Frnb Ac As]
+4.0 +4.0 100 +3 +3 1021.4 855.8 +4.0
06 16.01 штиль 0 4000 м дымка {туман} 1/1 1200 м
[Cu hum]
+11.8 +8.4 80 +11 +17 1020.3 856.9
09 16.01 В 2 5000 м мгла 5/1 1200 м
[Cu hum Ac trans Ci sp]
+14.0 +6.8 62 +14 +20 1017.7 854.7
12 16.01 ЮВ 2 6000 м мгла 8/4 1200 м
[Cu med, cong Ac trans Cs]
+16.8 +7.1 53 +17 +18 1015.2 852.8
15 16.01 В 3 8000 м мгла 9/3 1200 м
[Sc diur, vesp Ac trans Cs]
+15.4 +6.7 56 +15 +15 1015.7 852.5 +18.0
18 16.01 штиль 0 10 км 6/1 1200 м
[Sc diur, vesp Ac trans Cs]
+13.4 -1.7 35 +13 +13 1014.6 852.8
21 16.01 штиль 0 8000 м мгла 8/1 1200 м
[Sc diur, vesp Ac trans Cs]
+12.4 -2.8 35 +12 +12 1013.6 852.2
00 17.01 штиль 0 8000 м мгла 9/1 1200 м
[Sc diur, vesp Ac trans Cs]
+10.6 -1.6 43 +10 +10 1012.4 851.5
03 17.01 ЮВ 2 10 км 9/5 1050 м
[Cb calv Ac As Cs]
+11.4 -2.3 38 +11 +11 1011.0 850.1 +7.2
06 17.01 ЮВ 6 10 км слаб. ливневой дождь 8/8 900 м
[Cb calv]
+15.0 -2.4 30 +14 +14 1010.4 850.0
09 17.01 Ю 8 5000 м слаб. дождь 10/4 900 м
[Cb calv As op]
+12.0 +9.1 82 +9 +9 1007.1 846.6
12 17.01 ЮЗ 6 5000 м слаб. ливневой дождь 8/8 300 м
[Frnb]
+14.6 +7.5 62 +13 +13 1006.0 845.8 4
15 17.01 ЮЗ 6 8000 м пыльный позёмок {ливн. осадки, дождь} 3/3 1050 м
[Cu med, cong]
+9.2 +1.2 57 +6 +6 1010.9 848.5 +17.0
18 17.01 З 4 8000 м мгла 1/1 1050 м
[Cu hum]
+6.4 -4.0 47 +3 +3 1013.1 850.5 0.8
21 17.01 штиль 0 10 км ясно +3.8 -5.0 53 +3 +3 851.1
00 18.01 штиль 0 10 км ясно -1.0 -2.8 88 -2 -2 1016.4 851.2
03 18.01 штиль 0 10 км 3/3 1200 м
[Sc diur, vesp]
-2.8 -4.6 87 -4 -4 1018.9 851.3 -2.8
06 18.01 штиль 0 10 км 5/1 1200 м
[Sc diur, vesp Ci sp]
+5.2 -3.7 53 +5 +10 1018.7 852.6
09 18.01 ЮВ 2 10 км 4/0
[Ci sp]
+9.8 -5.9 33 +9 +17 1015.5 850.4
12 18.01 З 4 10 км 4/0
[Ci sp]
+12.8 -13.5 15 +12 +13 1014.8 849.2
15 18.01 З 2 10 км 4/0
[Ci sp]
+8.4 -13.1 20 +8 +8 1017.5 849.8 +13.4
18 18.01 СЗ 2 10 км 3/0
[Ci sp]
+5.6 -11.9 27 +4 +4 1016.8 850.6
21 18.01 штиль 0 10 км ясно +2.8 -12.0 33 +3 +3 850.1
00 19.01 СЗ 2 10 км ясно +1.8 -13.1 32 -0 -0 1014.5 849.7
03 19.01 штиль 0 12 км ясно +1.2 -11.2 39 +1 +1 1015.8 849.5 -1.0
06 19.01 СЗ 3 15 км ясно +6.0 -9.7 31 +4 +8 1016.8 850.9
09 19.01 ЮЗ 4 15 км ясно +10.0 -17.0 13 +8 +14 1015.2 849.8
12 19.01 З 6 12 км ясно +10.0 -18.8 11 +8 +9 1014.6 849.0

 

Местоположение метеостанции Шираз (Иран): широта 29.53 долгота 52.53 высота над уровнем моря 1481 м.

В архиве по умолчанию представлена погода в Ширазе за последнюю неделю. Архивные данные за месяц целиком и за предыдущие месяцы, начиная с января 2011 года, Вы можете получить, выбрав интересующий диапазон дат из раскрывающегося списка и нажав кнопку "Ввод!".


*Определитесь, кто Вы:
робот инопланетянин человек

Внимание! Время в таблицах - всемирное. Для получения местного времени необходимо прибавить поправку, которая равна 3.5 ч.

Смотрите также архив погоды в соседних городах и на ближайших метеорологических станциях:

Погода в Фесе (Иран) (128 км)
Погода в Ясудже (Иран) (156 км)
Погода в Бушире (Иран) (175 км)
Погода в Бушир аэропорту (Иран) (176 км)
Погода в Абаде (Иран) (184 км)
Погода в Гечсаране (Иран) (197 км)
Погода в Бендер-Дейере (Иран) (198 км)
Погода на Харке (Иран) (216 км)
Погода в Омидийе (Иран) (308 км)
Погода в Сирджане (Иран) (309 км)

Пояснения к столбцам:

Ветер - указаны скорость ветра в м/с - средняя за 10 мин, порывы в срок и между сроками (в фигурных скобках) и направление, откуда дует ветер: С - северный, СВ - северо-восточный, В - восточный, ЮВ - юго-восточный, Ю - южный, ЮЗ - юго-западный, З - западный, СЗ - северо-западный.
Видимость - горизонтальная дальность видимости в метрах или километрах. При видимости от 1 до 10 км при отсутствии осадков обычно наблюдается дымка, при ухудшении видимости до 1 км и менее - туман. В сухую погоду видимость может ухудшаться дымом, пылью или мглою.
Явления - указаны атмосферные явления, наблюдавшиеся в срок или в последний час перед сроком; фигурными скобками обозначены явления, наблюдавшиеся между сроками (за 1-3 часа до срока); квадратными скобками обозначены град или гололедные отложения с указанием их диаметра в мм.
Облачность - указаны через наклонную черту общая и нижняя облачность в баллах и высота нижней границы облаков в метрах; квадратными скобками обозначены формы облаков: Ci - перистые, Cs - перисто-слоистые, Cc - перисто-кучевые, Ac - высококучевые, As - высокослоистые, Sc - слоисто-кучевые, Ns - слоисто-дождевые, Cu - кучевые, Cb - кучево-дождевые. Подробнее классификацию облаков см. в Атласе облаков (PDF).
T - Температура воздуха - температура, измеренная на высоте 2 м над землей.
Td - Температура точки росы - температура, при понижении до которой содержащийся в воздухе водяной пар достигнет насыщения.
f - Относительная влажность воздуха - влажноcть воздуха, измеренная на высоте 2 м над землей.
Te - Эффективная температура - температура, которую ощущает одетый по сезону человек в тени. Характеристика душности погоды. При расчете учитывается влияние влажности воздуха и скорости ветра на теплоощущения человека.
Tes - Эффективная температура на солнце - температура, которую ощущает человек, с поправкой на солнечный нагрев. Характеристика знойности погоды. Зависит от высоты солнца над горизонтом, облачности и скорости ветра. Ночью, в пасмурную погоду, а также при ветре 12 м/с и более поправка равна нулю.
P - Атмосферное давление - приведенное к уровню моря атмосферное давление.
Po - Атмосферное давление - измеренное на уровне метеостанции атмосферное давление.
Tmin - Минимальная температура - минимум температуры воздуха на высоте 2 м над землей.
Tmax - Максимальная температура - максимум температуры воздуха на высоте 2 м над землей.
R - Количество осадков - Количество выпавших осадков за период времени, мм. При наведении курсора мыши на число - период времени, за который выпало указанное количество осадков.
R24 - Количество осадков - Количество выпавших осадков за 24 часа, мм.
S - Снежный покров - Высота снежного покрова, см. При наведении курсора мыши на число - состояние снежного покрова и степень покрытия местности в баллах.